Regional Weather Roundup
Issued by NWS

Home | Current Version | Previous Version | Text Only | Print | Product List | Glossary On
Versions: 1 2 3 4 5 6 7 8 9 10 11 12 13 14 15 16 17 18 19 20 21 22 23 24 25 26 27
000
ASUS45 KBOU 312107
RWRCO

WEATHER ROUNDUP FOR COLORADO
NATIONAL WEATHER SERVICE DENVER/BOULDER CO
300 PM MDT FRI OCT 31 2014

NOTE: "FAIR" INDICATES FEW OR NO CLOUDS BELOW 12000 FEET WITH NO
SIGNIFICANT WEATHER AND/OR OBSTRUCTIONS TO VISIBILITY.

COZ001>005-013-030-031-312200-
...NORTHWEST COLORADO...

CITY           SKY/WX    TMP DP  RH WIND       PRES   REMARKS
CRAIG          MOSUNNY   70  25  18 SW23      30.09F
HAYDEN         MOSUNNY   64  23  20 SW3       30.11F
MEEKER         MOSUNNY   68  22  17 S10       30.12F
MOUNT WERNER   NOT AVBL
STEAMBOAT SPGS MOSUNNY   61  23  23 W5        30.14S
WALDEN         PTSUNNY   61  19  20 SW22      30.18F
$$

COZ006>008-011-312200-
...WEST CENTRAL VALLEYS...

CITY           SKY/WX    TMP DP  RH WIND       PRES   REMARKS
GRAND JUNCTION MOSUNNY   66  27  23 W8        30.07F
MONTROSE       PTSUNNY   59  28  30 W5        30.14F
EAGLE          MOSUNNY   61  25  25 CALM      30.17F
RIFLE          MOSUNNY   63  26  24 VRB3      30.10F
DELTA          PTSUNNY   64  29  26 CALM      30.11F
NUCLA          PTSUNNY   68  25  19 S8G16     30.17F
$$

COZ017>023-064>068-312200-
...SOUTHWEST COLORADO...

CITY           SKY/WX    TMP DP  RH WIND       PRES   REMARKS
DURANGO        PTSUNNY   62  26  25 CALM      30.24F
CORTEZ         SUNNY     71  26  18 S12       30.17F
PAGOSA SPRINGS PTSUNNY   59  22  24 CALM      30.30F
TELLURIDE      PTSUNNY   55  19  24 SE14G20   30.31F
WOLF CREEK PAS PTSUNNY   37  21  52 SW18G30   30.47F
$$

COZ009-010-012-014-032>034-037-058>063-312200-
...CENTRAL COLORADO...

CITY           SKY/WX    TMP DP  RH WIND       PRES   REMARKS
ASPEN          PTSUNNY   62  18  18 N10       30.18F
BUENA VISTA    PTSUNNY   57  20  24 CALM      30.24F
COPPER MTN     MOSUNNY   52   3  14 SW14G21   30.42S
BERTHOUD PASS  FAIR      36  32  87 NW10G18   30.45S
COTTONWOOD PAS PTSUNNY   55  19  24 S3        30.33F
GUNNISON       MOSUNNY   59  19  21 W6        30.24F
KREMMLING      MOSUNNY   68  18  14 SW15      30.18F
LEADVILLE      PTSUNNY   53  10  18 VRB7      30.30F
MONARCH PASS   MOSUNNY   45  18  33 SW28      30.52F
SALIDA         PTSUNNY   64  20  19 SE13      30.29F
SUNLIGHT       PTSUNNY   52  23  32 CALM      30.37F
WILKERSON PASS NOT AVBL
$$

COZ069>075-312200-
...SAN LUIS VALLEY/SANGRE DE CRISTO MOUNTAINS...

CITY           SKY/WX    TMP DP  RH WIND       PRES   REMARKS
ALAMOSA        MOSUNNY   62  23  22 SE16G22   30.26F
LA VETA PASS   SUNNY     54  23  30 S6        30.39F
SAGUACHE       SUNNY     55  21  26 S9        30.29F
$$

COZ035-036-038>040-312200-
...NORTHERN COLORADO FRONT RANGE...

CITY           SKY/WX    TMP DP  RH WIND       PRES   REMARKS
DENVER INTL AP MOSUNNY   58  30  34 NW7       30.13F
DMNS CITY PARK   N/A     55  29  36 N7        30.14S
AURORA         PTSUNNY   57  31  36 N2        30.15F
FRONT RANGE AP NOT AVBL
ERIE MUNI ARPT SUNNY     53  28  38 CALM      30.15F
BOULDER MUN AP SUNNY     54  30  40 CALM      30.15F
CENTENNIAL     PTSUNNY   57  29  34 SE9       30.14F
BROOMFIELD     PTSUNNY   54  28  37 CALM      30.16F
FORT COLLINS   MOSUNNY   52  30  43 NE6       30.18F
LONGMONT       MOSUNNY   55  31  39 CALM      30.17F
$$

COZ041-046-047-076>085-087-088-312200-
...PIKES PEAK/PALMER DIVIDE AND SOUTHERN FOOTHILLS...

CITY           SKY/WX    TMP DP  RH WIND       PRES   REMARKS
COLO. SPRINGS  MOSUNNY   50  28  42 SE12      30.24F
A. F. ACADEMY  SUNNY     48  28  45 SE14G21   30.23F
ELLICOTT       SUNNY     52  28  39 S17G25    30.22F
FALCON         SUNNY     48  26  43 S9        30.26F
FORT CARSON    SUNNY     50  28  43 SE10      30.23F
LIMON          SUNNY     51  28  41 S25G35    30.22F
MONUMENT HILL  SUNNY     48  28  46 S23G29    30.18F
TRINIDAD       MOSUNNY   64  26  23 E6        30.20F
$$

COZ042>045-048>051-090-091-312200-
...NORTHEAST COLORADO...

CITY           SKY/WX    TMP DP  RH WIND       PRES   REMARKS
GREELEY ARPT   SUNNY     55  30  38 W5        30.15F
AKRON          SUNNY     53  27  36 SE30G37   30.21F
BURLINGTON     SUNNY     51  27  39 SE23G29   30.29F
WRAY           SUNNY     53  26  34 SE20G28   30.28F
STERLING       SUNNY     61  32  33 S21G29    30.19
HOLYOKE        SUNNY     54  30  40 SE20G28   30.27F
FORT MORGAN    SUNNY     56  27  32 S20       30.18F
$$

COZ086-089-092>099-312200-
...SOUTHEAST COLORADO...

CITY           SKY/WX    TMP DP  RH WIND       PRES   REMARKS
PUEBLO         SUNNY     56  28  34 E7        30.20F
LA JUNTA       SUNNY     66  30  26 S18G35    30.18F
LAMAR          SUNNY     59  28  30 S21G30    30.26F
SPRINGFIELD      N/A     57  29  34 S24       30.30F
$$



USA.gov is the U.S. government's official web portal to all federal, state and local government web resources and services.